| time (UTC) | temp C | wind direction | speed KPH | gust KPH | rain 1hr cm | rain 24hr cm | rain mn cm | humidity % | barometer mb |
| 20260503224906 | 23 | 67 | 1.6 | 1.6 | 0.00 | 0.00 | 0.00 | 43 | 1012.7 |
| 20260503224403 | 23 | 30 | 3.2 | 3.2 | 0.00 | 0.00 | 0.00 | 41 | 1012.7 |
| 20260503223900 | 23 | 21 | 3.2 | 3.2 | 0.00 | 0.00 | 0.00 | 42 | 1012.8 |
| 20260503223358 | 23 | 9 | 1.6 | 1.6 | 0.00 | 0.00 | 0.00 | 42 | 1012.9 |
| 20260503222853 | 23 | 29 | 1.6 | 1.6 | 0.00 | 0.00 | 0.00 | 43 | 1013.1 |
| 20260503222352 | 23 | 15 | 0.0 | 0.0 | 0.00 | 0.00 | 0.00 | 43 | 1013.1 |
| 20260503221850 | 22 | 20 | 1.6 | 1.6 | 0.00 | 0.00 | 0.00 | 43 | 1013.3 |
| 20260503221349 | 22 | 27 | 1.6 | 1.6 | 0.00 | 0.00 | 0.00 | 44 | 1013.2 |
| 20260503220844 | 22 | 35 | 1.6 | 1.6 | 0.00 | 0.00 | 0.00 | 44 | 1013.5 |
| 20260503220341 | 22 | 29 | 3.2 | 3.2 | 0.00 | 0.00 | 0.00 | 44 | 1013.4 |
| 20260503215838 | 22 | 20 | 4.8 | 4.8 | 0.00 | 0.00 | 0.00 | 44 | 1013.5 |
| 20260503215335 | 22 | 33 | 3.2 | 3.2 | 0.00 | 0.00 | 0.00 | 45 | 1013.7 |
| 20260503214833 | 22 | 4 | 1.6 | 1.6 | 0.00 | 0.00 | 0.00 | 44 | 1013.5 |
| 20260503214330 | 22 | 17 | 0.0 | 0.0 | 0.00 | 0.00 | 0.00 | 45 | 1013.5 |
| 20260503213827 | 22 | 357 | 1.6 | 3.2 | 0.00 | 0.00 | 0.00 | 45 | 1013.7 |
| 20260503213325 | 22 | 30 | 3.2 | 4.8 | 0.00 | 0.00 | 0.00 | 47 | 1013.5 |
| 20260503212821 | 22 | 3 | 1.6 | 1.6 | 0.00 | 0.00 | 0.00 | 46 | 1013.8 |
| 20260503212320 | 22 | 34 | 4.8 | 4.8 | 0.00 | 0.00 | 0.00 | 46 | 1013.6 |
| 20260503211816 | 22 | 4 | 1.6 | 1.6 | 0.00 | 0.00 | 0.00 | 46 | 1013.7 |
| 20260503211313 | 22 | 45 | 3.2 | 3.2 | 0.00 | 0.00 | 0.00 | 47 | 1013.6 |
| 20260503210813 | 22 | 35 | 4.8 | 4.8 | 0.00 | 0.00 | 0.00 | 46 | 1013.7 |
| 20260503210311 | 22 | 44 | 3.2 | 3.2 | 0.00 | 0.00 | 0.00 | 46 | 1013.7 |
| 20260503205806 | 22 | 23 | 0.0 | 0.0 | 0.00 | 0.00 | 0.00 | 46 | 1013.8 |
| 20260503205304 | 22 | 23 | 1.6 | 1.6 | 0.00 | 0.00 | 0.00 | 47 | 1013.8 |
| 20260503204759 | 22 | 30 | 3.2 | 3.2 | 0.00 | 0.00 | 0.00 | 46 | 1013.9 |
| 20260503204257 | 21 | 26 | 3.2 | 3.2 | 0.00 | 0.00 | 0.00 | 47 | 1014.0 |
| 20260503203754 | 22 | 20 | 1.6 | 1.6 | 0.00 | 0.00 | 0.00 | 46 | 1014.0 |
| 20260503203251 | 22 | 349 | 3.2 | 1.6 | 0.00 | 0.00 | 0.00 | 46 | 1013.9 |
| 20260503202748 | 22 | 2 | 1.6 | 3.2 | 0.00 | 0.00 | 0.00 | 46 | 1014.0 |
| 20260503202246 | 21 | 27 | 1.6 | 1.6 | 0.00 | 0.00 | 0.00 | 46 | 1013.9 |
| 20260503201744 | 21 | 11 | 1.6 | 1.6 | 0.00 | 0.00 | 0.00 | 45 | 1013.9 |
| 20260503201241 | 21 | 10 | 3.2 | 3.2 | 0.00 | 0.00 | 0.00 | 46 | 1014.1 |
| 20260503200737 | 21 | 20 | 1.6 | 1.6 | 0.00 | 0.00 | 0.00 | 46 | 1014.4 |
| 20260503200234 | 21 | 9 | 1.6 | 1.6 | 0.00 | 0.00 | 0.00 | 45 | 1014.4 |
| 20260503195731 | 21 | 25 | 3.2 | 3.2 | 0.00 | 0.00 | 0.00 | 44 | 1014.2 |
| 20260503195228 | 21 | 42 | 3.2 | 3.2 | 0.00 | 0.00 | 0.00 | 44 | 1014.6 |
| 20260503194726 | 21 | 8 | 3.2 | 3.2 | 0.00 | 0.00 | 0.00 | 43 | 1014.5 |
| 20260503194221 | 21 | 15 | 3.2 | 3.2 | 0.00 | 0.00 | 0.00 | 43 | 1014.4 |
| 20260503193717 | 21 | 1 | 3.2 | 3.2 | 0.00 | 0.00 | 0.00 | 46 | 1014.8 |
| 20260503193213 | 21 | 26 | 1.6 | 1.6 | 0.00 | 0.00 | 0.00 | 49 | 1014.8 |
| 20260503192709 | 21 | 349 | 1.6 | 1.6 | 0.00 | 0.00 | 0.00 | 49 | 1014.9 |
| 20260503192204 | 21 | 59 | 1.6 | 1.6 | 0.00 | 0.00 | 0.00 | 49 | 1014.8 |
| 20260503191701 | 21 | 8 | 1.6 | 3.2 | 0.00 | 0.00 | 0.00 | 50 | 1015.0 |
| 20260503191158 | 21 | 30 | 3.2 | 4.8 | 0.00 | 0.00 | 0.00 | 50 | 1014.8 |
| 20260503190655 | 21 | 44 | 4.8 | 4.8 | 0.00 | 0.00 | 0.00 | 51 | 1015.0 |
| 20260503190152 | 21 | 4 | 1.6 | 1.6 | 0.00 | 0.00 | 0.00 | 50 | 1015.1 |
| 20260503185649 | 21 | 49 | 3.2 | 3.2 | 0.00 | 0.00 | 0.00 | 50 | 1015.1 |
| 20260503185144 | 21 | 27 | 1.6 | 1.6 | 0.00 | 0.00 | 0.00 | 50 | 1015.1 |
| 20260503184639 | 20 | 28 | 1.6 | 1.6 | 0.00 | 0.00 | 0.00 | 51 | 1015.1 |
| 20260503184136 | 20 | 40 | 3.2 | 1.6 | 0.00 | 0.00 | 0.00 | 52 | 1015.2 |
| 20260503183632 | 20 | 31 | 3.2 | 4.8 | 0.00 | 0.00 | 0.00 | 51 | 1015.2 |
| 20260503183130 | 20 | 40 | 3.2 | 3.2 | 0.00 | 0.00 | 0.00 | 52 | 1015.3 |
| 20260503182628 | 20 | 21 | 1.6 | 1.6 | 0.00 | 0.00 | 0.00 | 53 | 1015.3 |
| 20260503182126 | 20 | 0 | 1.6 | 1.6 | 0.00 | 0.00 | 0.00 | 53 | 1015.4 |
| 20260503181622 | 20 | 39 | 0.0 | 0.0 | 0.00 | 0.00 | 0.00 | 54 | 1015.3 |
| 20260503181119 | 20 | 20 | 3.2 | 3.2 | 0.00 | 0.00 | 0.00 | 53 | 1015.3 |
| 20260503180616 | 20 | 39 | 3.2 | 3.2 | 0.00 | 0.00 | 0.00 | 53 | 1015.4 |
| 20260503180114 | 19 | 37 | 3.2 | 3.2 | 0.00 | 0.00 | 0.00 | 54 | 1015.3 |
| 20260503175611 | 20 | 358 | 1.6 | 1.6 | 0.00 | 0.00 | 0.00 | 53 | 1015.4 |
| 20260503175108 | 20 | 21 | 1.6 | 1.6 | 0.00 | 0.00 | 0.00 | 54 | 1015.4 |
| 20260503174605 | 19 | 41 | 1.6 | 1.6 | 0.00 | 0.00 | 0.00 | 54 | 1015.7 |
| 20260503174102 | 19 | 32 | 3.2 | 3.2 | 0.00 | 0.00 | 0.00 | 54 | 1015.4 |
| 20260503173556 | 19 | 50 | 3.2 | 1.6 | 0.00 | 0.00 | 0.00 | 56 | 1015.4 |
| 20260503173053 | 18 | 43 | 1.6 | 1.6 | 0.00 | 0.00 | 0.00 | 56 | 1015.5 |
| 20260503172550 | 18 | 0 | 3.2 | 3.2 | 0.00 | 0.00 | 0.00 | 54 | 1015.8 |
| 20260503172048 | 18 | 66 | 1.6 | 3.2 | 0.00 | 0.00 | 0.00 | 57 | 1015.5 |
| 20260503171544 | 18 | 350 | 0.0 | 0.0 | 0.00 | 0.00 | 0.00 | 58 | 1015.6 |
| 20260503171042 | 18 | 37 | 1.6 | 1.6 | 0.00 | 0.00 | 0.00 | 57 | 1015.7 |
| 20260503170538 | 18 | 41 | 0.0 | 1.6 | 0.00 | 0.00 | 0.00 | 56 | 1015.6 |
| 20260503150930 | 15 | 30 | 3.2 | 3.2 | 0.00 | 0.00 | 0.00 | 66 | 1015.9 |
| 20260503150427 | 15 | 7 | 3.2 | 4.8 | 0.00 | 0.00 | 0.00 | 66 | 1015.8 |
| 20260503131320 | 13 | 30 | 0.0 | 0.0 | 0.00 | 0.00 | 0.00 | 70 | 1015.5 |
| 20260503130817 | 12 | 30 | 0.0 | 0.0 | 0.00 | 0.00 | 0.00 | 71 | 1015.4 |
| 20260503130315 | 12 | 30 | 0.0 | 1.6 | 0.00 | 0.00 | 0.00 | 73 | 1015.3 |
| 20260503110708 | 13 | 30 | 0.0 | 0.0 | 0.00 | 0.00 | 0.00 | 68 | 1015.8 |
| 20260503110206 | 13 | 30 | 0.0 | 0.0 | 0.00 | 0.00 | 0.00 | 69 | 1015.9 |
| 20260503100132 | 15 | 30 | 0.0 | 0.0 | 0.00 | 0.00 | 0.00 | 58 | 1015.6 |
| 20260503081521 | 15 | 30 | 0.0 | 0.0 | 0.00 | 0.00 | 0.00 | 58 | 1015.7 |
| 20260503081019 | 15 | 30 | 0.0 | 0.0 | 0.00 | 0.00 | 0.00 | 58 | 1015.9 |
| 20260503080515 | 15 | 30 | 0.0 | 0.0 | 0.00 | 0.00 | 0.00 | 57 | 1016.0 |
| 20260503072449 | 17 | 30 | 0.0 | 0.0 | 0.00 | 0.00 | 0.00 | 47 | 1015.5 |
| 20260503071945 | 18 | 30 | 0.0 | 0.0 | 0.00 | 0.00 | 0.00 | 44 | 1015.8 |
| 20260503071442 | 18 | 30 | 1.6 | 0.0 | 0.00 | 0.00 | 0.00 | 43 | 1015.7 |
| 20260503070938 | 17 | 30 | 1.6 | 1.6 | 0.00 | 0.00 | 0.00 | 43 | 1015.7 |
| 20260503070435 | 17 | 30 | 1.6 | 1.6 | 0.00 | 0.00 | 0.00 | 45 | 1015.7 |
| 20260503054849 | 17 | 30 | 0.0 | 0.0 | 0.00 | 0.00 | 0.00 | 48 | 1015.6 |
| 20260503054345 | 17 | 30 | 0.0 | 0.0 | 0.00 | 0.00 | 0.00 | 48 | 1015.7 |
| 20260503053843 | 17 | 30 | 0.0 | 0.0 | 0.00 | 0.00 | 0.00 | 48 | 1015.6 |
| 20260503053341 | 17 | 30 | 0.0 | 0.0 | 0.00 | 0.00 | 0.00 | 49 | 1015.7 |
| 20260503052837 | 17 | 30 | 0.0 | 0.0 | 0.00 | 0.00 | 0.00 | 48 | 1015.8 |
| 20260503052334 | 17 | 30 | 1.6 | 0.0 | 0.00 | 0.00 | 0.00 | 47 | 1015.8 |
| 20260503051830 | 17 | 30 | 1.6 | 1.6 | 0.00 | 0.00 | 0.00 | 47 | 1015.6 |
| 20260503051327 | 17 | 30 | 1.6 | 0.0 | 0.00 | 0.00 | 0.00 | 47 | 1015.8 |
| 20260503050824 | 17 | 30 | 1.6 | 1.6 | 0.00 | 0.00 | 0.00 | 47 | 1015.8 |
| 20260503050320 | 18 | 30 | 0.0 | 0.0 | 0.00 | 0.00 | 0.00 | 47 | 1015.7 |
| 20260503045818 | 18 | 29 | 0.0 | 0.0 | 0.00 | 0.00 | 0.00 | 47 | 1015.7 |
| 20260503045315 | 18 | 30 | 0.0 | 0.0 | 0.00 | 0.00 | 0.00 | 46 | 1015.8 |
| 20260503044811 | 18 | 30 | 0.0 | 0.0 | 0.00 | 0.00 | 0.00 | 46 | 1015.5 |
| 20260503044308 | 18 | 30 | 0.0 | 0.0 | 0.00 | 0.00 | 0.00 | 45 | 1015.5 |
| 20260503043806 | 18 | 25 | 0.0 | 0.0 | 0.00 | 0.00 | 0.00 | 45 | 1015.5 |
| 20260503043303 | 18 | 25 | 1.6 | 1.6 | 0.00 | 0.00 | 0.00 | 45 | 1015.4 |
| 20260503042758 | 18 | 26 | 0.0 | 0.0 | 0.00 | 0.00 | 0.00 | 45 | 1015.3 |
| 20260503042255 | 18 | 24 | 1.6 | 1.6 | 0.00 | 0.00 | 0.00 | 45 | 1015.1 |
| 20260503041751 | 18 | 21 | 1.6 | 1.6 | 0.00 | 0.00 | 0.00 | 46 | 1015.2 |
| 20260503041249 | 18 | 30 | 1.6 | 1.6 | 0.00 | 0.00 | 0.00 | 47 | 1015.0 |
| 20260503040746 | 18 | 30 | 1.6 | 1.6 | 0.00 | 0.00 | 0.00 | 46 | 1015.1 |
| 20260503040244 | 18 | 40 | 4.8 | 3.2 | 0.00 | 0.00 | 0.00 | 47 | 1015.2 |
| 20260503035740 | 18 | 41 | 1.6 | 1.6 | 0.00 | 0.00 | 0.00 | 47 | 1015.0 |
| 20260503035238 | 18 | 16 | 1.6 | 1.6 | 0.00 | 0.00 | 0.00 | 48 | 1015.0 |
| 20260503034735 | 18 | 14 | 1.6 | 1.6 | 0.00 | 0.00 | 0.00 | 47 | 1014.8 |
| 20260503034232 | 18 | 10 | 1.6 | 1.6 | 0.00 | 0.00 | 0.00 | 47 | 1014.8 |
| 20260503033730 | 18 | 57 | 1.6 | 1.6 | 0.00 | 0.00 | 0.00 | 48 | 1014.7 |
| 20260503033227 | 18 | 356 | 0.0 | 0.0 | 0.00 | 0.00 | 0.00 | 48 | 1014.8 |
| 20260503032725 | 18 | 47 | 1.6 | 1.6 | 0.00 | 0.00 | 0.00 | 48 | 1014.4 |
| 20260503032224 | 18 | 56 | 1.6 | 1.6 | 0.00 | 0.00 | 0.00 | 49 | 1014.6 |
| 20260503031720 | 18 | 44 | 1.6 | 1.6 | 0.00 | 0.00 | 0.00 | 49 | 1014.5 |
| 20260503031218 | 18 | 44 | 0.0 | 0.0 | 0.00 | 0.00 | 0.00 | 50 | 1014.7 |
| 20260503030714 | 18 | 45 | 0.0 | 1.6 | 0.00 | 0.00 | 0.00 | 49 | 1014.5 |
| 20260503030210 | 18 | 45 | 1.6 | 1.6 | 0.00 | 0.00 | 0.00 | 49 | 1014.4 |
| 20260503025707 | 18 | 60 | 1.6 | 1.6 | 0.00 | 0.00 | 0.00 | 49 | 1014.4 |
| 20260503025205 | 19 | 57 | 0.0 | 0.0 | 0.00 | 0.00 | 0.00 | 50 | 1014.4 |
| 20260503024701 | 19 | 66 | 3.2 | 3.2 | 0.00 | 0.00 | 0.00 | 50 | 1014.4 |
| 20260503024159 | 19 | 68 | 0.0 | 0.0 | 0.00 | 0.00 | 0.00 | 50 | 1014.4 |
| 20260503023656 | 19 | 26 | 1.6 | 1.6 | 0.00 | 0.00 | 0.00 | 50 | 1014.5 |
| 20260503023152 | 19 | 29 | 1.6 | 1.6 | 0.00 | 0.00 | 0.00 | 50 | 1014.3 |
| 20260503022649 | 20 | 27 | 1.6 | 3.2 | 0.00 | 0.00 | 0.00 | 50 | 1014.4 |
| 20260503022148 | 20 | 21 | 1.6 | 3.2 | 0.00 | 0.00 | 0.00 | 50 | 1014.5 |
| 20260503021645 | 20 | 27 | 3.2 | 3.2 | 0.00 | 0.00 | 0.00 | 49 | 1014.4 |
| 20260503021142 | 20 | 9 | 0.0 | 0.0 | 0.00 | 0.00 | 0.00 | 50 | 1014.3 |
| 20260503020639 | 20 | 22 | 1.6 | 1.6 | 0.00 | 0.00 | 0.00 | 50 | 1014.4 |
| 20260503020137 | 20 | 6 | 0.0 | 0.0 | 0.00 | 0.00 | 0.00 | 50 | 1014.4 |
| 20260503015633 | 20 | 28 | 3.2 | 3.2 | 0.00 | 0.00 | 0.00 | 51 | 1014.6 |
| 20260503015130 | 20 | 31 | 1.6 | 1.6 | 0.00 | 0.00 | 0.00 | 50 | 1014.5 |
| 20260503014626 | 20 | 27 | 3.2 | 3.2 | 0.00 | 0.00 | 0.00 | 51 | 1014.6 |
| 20260503014124 | 20 | 325 | 1.6 | 1.6 | 0.00 | 0.00 | 0.00 | 51 | 1014.6 |
| 20260503013621 | 20 | 19 | 1.6 | 1.6 | 0.00 | 0.00 | 0.00 | 51 | 1014.5 |
| 20260503013119 | 20 | 38 | 1.6 | 1.6 | 0.00 | 0.00 | 0.00 | 51 | 1014.7 |
| 20260503012616 | 20 | 350 | 1.6 | 1.6 | 0.00 | 0.00 | 0.00 | 51 | 1014.8 |
| 20260503012113 | 20 | 91 | 1.6 | 3.2 | 0.00 | 0.00 | 0.00 | 51 | 1014.7 |
| 20260503011609 | 20 | 30 | 1.6 | 3.2 | 0.00 | 0.00 | 0.00 | 51 | 1014.8 |
| 20260503011106 | 20 | 40 | 1.6 | 1.6 | 0.00 | 0.00 | 0.00 | 51 | 1014.7 |
| 20260503010602 | 20 | 24 | 3.2 | 3.2 | 0.00 | 0.00 | 0.00 | 51 | 1015.0 |
| 20260503010100 | 20 | 49 | 1.6 | 1.6 | 0.00 | 0.00 | 0.00 | 50 | 1014.8 |
| 20260503005557 | 20 | 22 | 3.2 | 3.2 | 0.00 | 0.00 | 0.00 | 50 | 1014.6 |
| 20260503005054 | 20 | 25 | 3.2 | 3.2 | 0.00 | 0.00 | 0.00 | 52 | 1014.6 |
| 20260503004550 | 20 | 7 | 1.6 | 1.6 | 0.00 | 0.00 | 0.00 | 51 | 1014.9 |
| 20260503004049 | 20 | 10 | 1.6 | 1.6 | 0.00 | 0.00 | 0.00 | 51 | 1014.7 |
| 20260503003545 | 20 | 345 | 6.4 | 6.4 | 0.00 | 0.00 | 0.00 | 52 | 1014.7 |
| 20260503003042 | 20 | 19 | 3.2 | 3.2 | 0.00 | 0.00 | 0.00 | 52 | 1014.9 |
| 20260503002539 | 20 | 9 | 3.2 | 3.2 | 0.00 | 0.00 | 0.00 | 52 | 1014.6 |
| 20260503002036 | 20 | 37 | 1.6 | 1.6 | 0.00 | 0.00 | 0.00 | 53 | 1015.0 |
| 20260503001532 | 20 | 34 | 1.6 | 0.0 | 0.00 | 0.00 | 0.00 | 53 | 1015.0 |
| 20260503001030 | 20 | 15 | 1.6 | 1.6 | 0.00 | 0.00 | 0.00 | 53 | 1014.9 |
| 20260503000527 | 20 | 16 | 1.6 | 1.6 | 0.00 | 0.00 | 0.00 | 53 | 1015.0 |
| 20260503000024 | 20 | 31 | 0.0 | 0.0 | 0.00 | 0.00 | 0.00 | 55 | 1014.9 |
| 20260502235520 | 20 | 43 | 1.6 | 0.0 | 0.00 | 0.00 | 0.00 | 55 | 1015.0 |
| 20260502235019 | 20 | 334 | 4.8 | 6.4 | 0.00 | 0.00 | 0.00 | 54 | 1015.1 |
| 20260502234514 | 20 | 33 | 1.6 | 1.6 | 0.00 | 0.00 | 0.00 | 55 | 1015.1 |
| 20260502234012 | 20 | 1 | 3.2 | 3.2 | 0.00 | 0.00 | 0.00 | 54 | 1015.1 |
| 20260502233512 | 20 | 26 | 3.2 | 3.2 | 0.00 | 0.00 | 0.00 | 53 | 1015.4 |
| 20260502233010 | 20 | 24 | 1.6 | 1.6 | 0.00 | 0.00 | 0.00 | 54 | 1015.2 |
| 20260502232506 | 20 | 35 | 3.2 | 3.2 | 0.00 | 0.00 | 0.00 | 53 | 1015.5 |
| 20260502232002 | 20 | 347 | 1.6 | 1.6 | 0.00 | 0.00 | 0.00 | 52 | 1015.3 |
| 20260502231500 | 20 | 39 | 1.6 | 1.6 | 0.00 | 0.00 | 0.00 | 52 | 1015.4 |
| 20260502230958 | 20 | 8 | 1.6 | 1.6 | 0.00 | 0.00 | 0.00 | 53 | 1015.7 |
| 20260502230456 | 20 | 33 | 4.8 | 4.8 | 0.00 | 0.00 | 0.00 | 53 | 1015.6 |
| 20260502225954 | 20 | 22 | 1.6 | 1.6 | 0.00 | 0.00 | 0.00 | 52 | 1015.8 |
| 20260502225449 | 20 | 26 | 4.8 | 4.8 | 0.00 | 0.00 | 0.00 | 51 | 1015.8 |